Meteo Giornale » Osservazioni meteo Iran » Rasht
ore: 06:30 - Osservazioni Meteo Rasht
Lat. 37° 12' N Lon. 49° 38' E Alt. -7 metri s.l.m.
21 °C
Molto Nuvoloso
Temp. 24 Ore
20 °C
25 °C
Nord
0 Km/h
Dew point 16 °C
Umidità 73 %
Visibilità 10 Km
Il sole sorge alle ore 05:42
Il sole tramonta alle ore 18:39
| Data e Ora | Cielo e Fenomeni | T °C | DP °C | Um. % | Pres. hPa | Vis. km | Vento km/h | |
|---|---|---|---|---|---|---|---|---|
| Oggi h: 06:30 | Molto Nuvoloso | 21 | 16 | 73 | 1016 | 10 | N 0 | |
| Oggi h: 06:00 | Nuvoloso | 20 | 16 | 77 | 1016 | 10 | N 0 | |
| Oggi h: 05:30 | Nuvoloso | 20 | 17 | 82 | 1015 | 10 | N 0 | |
| Oggi h: 04:30 | Nuvoloso | 21 | 16 | 73 | 1015 | 10 | N 0 | |
| Oggi h: 03:30 | Nuvoloso | 21 | 16 | 73 | 1015 | 10 | N 0 | |
| Oggi h: 02:30 | Molto Nuvoloso | 21 | 17 | 77 | 1015 | 10 | N 0 | |
| Oggi h: 01:30 | Molto Nuvoloso | 22 | 16 | 68 | 1015 | 10 | N 0 | |
| Oggi h: 00:30 | Molto Nuvoloso | 22 | 17 | 73 | 1015 | 10 | N 0 | |
| Ieri h: 23:30 | Molto Nuvoloso | 23 | 17 | 68 | 1016 | 10 | S/SO 7.4 | |
| Ieri h: 22:30 | Molto Nuvoloso | 23 | 17 | 68 | 1016 | 10 | SO 7.4 | |
| Ieri h: 21:30 | Molto Nuvoloso | 23 | 18 | 73 | 1016 | 10 | S/SO 7.4 | |
| Ieri h: 21:00 | Molto Nuvoloso | 23 | 18 | 73 | 1016 | 10 | SO 11.1 | |
| Ieri h: 20:30 | Molto Nuvoloso | 23 | 18 | 73 | 1016 | 10 | S/SO 7.4 | |
| Ieri h: 20:00 | Molto Nuvoloso | 23 | 18 | 73 | 1016 | 10 | SO 7.4 | |
| Ieri h: 19:30 | Coperto | 23 | 19 | 78 | 1015 | 10 | SO 11.1 | |
| Ieri h: 19:00 | Coperto | 23 | 19 | 78 | 1015 | 10 | S/SO 14.8 | |
| Ieri h: 18:30 | Coperto | 23 | 19 | 78 | 1015 | 10 | O/SO 14.8 | |
| Ieri h: 18:00 | Molto Nuvoloso | 24 | 20 | 78 | 1015 | 10 | O/SO 7.4 | |
| Ieri h: 17:30 | Molto Nuvoloso | 25 | 18 | 65 | 1015 | 10 | NO 11.1 | |
| Ieri h: 17:00 | Molto Nuvoloso | 25 | 19 | 69 | 1015 | 8 | NO 14.8 | |
| Ieri h: 16:30 | Molto Nuvoloso | 25 | 19 | 69 | 1015 | 8 | NO 14.8 | |
| Ieri h: 16:00 | Molto Nuvoloso | 25 | 19 | 69 | 1015 | 8 | NO 14.8 | |
| Ieri h: 15:30 | Coperto | 25 | 19 | 69 | 1014 | 8 | NO 14.8 | |
| Ieri h: 15:00 | Coperto | 25 | 19 | 69 | 1015 | 10 | NO 14.8 | |
| Ieri h: 14:30 | Coperto | 25 | 19 | 69 | 1014 | 10 | O/NO 14.8 | |
| Ieri h: 14:00 | Coperto | 25 | 19 | 69 | 1014 | 8 | N/NO 14.8 | |
| Ieri h: 13:30 | Coperto | 25 | 19 | 69 | 1014 | 8 | N/NO 14.8 | |
| Ieri h: 13:00 | Pioggia | 23 | 23 | 100 | 1015 | 8 | O/SO 14.8 | |
| Ieri h: 12:30 | Pioggia | 23 | 23 | 100 | 1015 | 8 | O/SO 14.8 | |
| Ieri h: 12:00 | Pioggia | 22 | 22 | 100 | 1015 | 7 | O 14.8 | |
| Ieri h: 11:30 | Pioggia | 22 | 22 | 100 | 1015 | 7 | O 14.8 | |
| Ieri h: 11:00 | Pioggia | 21 | 21 | 100 | 1015 | 6 | S/SO 11.1 | |
| Ieri h: 10:30 | Pioggia | 21 | 21 | 100 | 1015 | 3 | S/SO 11.1 | |
| Ieri h: 10:00 | Pioggia | 20 | 20 | 100 | 1014 | 3 | O/SO 18.5 | |
| Ieri h: 09:30 | Pioggia | 20 | 20 | 100 | 1014 | 3 | O/SO 18.5 | |
| Ieri h: 09:00 | Pioggia | 20 | 20 | 100 | 1014 | 2 | O 14.8 | |
| Ieri h: 08:30 | Pioggia | 20 | 20 | 100 | 1014 | 2 | O 14.8 | |
| Ieri h: 08:00 | Pioggia | 20 | 20 | 100 | 1014 | 2 | O 14.8 | |
| Ieri h: 07:30 | Pioggia | 20 | 20 | 100 | 1014 | 2 | O 14.8 | |



